This demonstration page uses our WeatherBlox Daily Observations layout. Learn more.

Left ArrowRight Arrow

39.51506, -84.39828

Hourly Observations for January 13, 2019

Temp ( °F °C ) Dew Point ( °F °C ) Humidity (%) Winds ( mph kmh ) Pressure ( in mb ) Visibility ( mi km ) Precip ( " mm )
12:15 am 00:15 Cloudy 31 -0.8 29 -1.9 92 92 NNE 8 13 30.24 1024 7 11 0.00 0.00
12:35 am 00:35 Cloudy 31 -0.8 29 -1.9 92 92 NNE 9 15 30.21 1023 7 11 0.00 0.00
12:55 am 00:55 Cloudy 31 -0.8 28 -2 92 92 NNE 9 15 30.21 1023 7 11 0.00 0.00
1:15 am 01:15 Cloudy 31 -0.8 28 -2 92 92 NE 9 15 30.21 1023 7 11 0.00 0.00
1:35 am 01:35 Cloudy 31 -0.7 28 -2.1 90 90 NE 12 19 30.21 1023 10 16 0.00 0.00
1:55 am 01:55 Cloudy 31 -0.7 28 -2 91 91 NNE 10 17 30.21 1023 10 16 0.00 0.00
2:15 am 02:15 Cloudy 31 -0.8 28 -2.2 90 90 NE 12 19 30.21 1023 10 16 0.00 0.00
2:35 am 02:35 Cloudy 31 -0.8 28 -2.2 90 90 NNE 10 17 30.21 1023 10 16 0.00 0.00
2:55 am 02:55 Cloudy 30 -0.9 28 -2.3 90 90 NNE 8 13 30.24 1024 10 16 0.00 0.00
3:15 am 03:15 Cloudy 30 -0.9 28 -2.4 90 90 NNE 10 17 30.21 1023 10 16 0.00 0.00
3:35 am 03:35 Cloudy with Light Snow 30 -0.9 28 -2.3 90 90 NNE 8 13 30.21 1023 7 11 0.00 0.00
3:55 am 03:55 Cloudy with Light Snow 30 -1.1 28 -2.2 92 92 NNE 9 15 30.21 1023 3 4 0.00 0.00
4:15 am 04:15 Cloudy with Light Snow 30 -1.3 28 -2.3 93 93 NNE 9 15 30.21 1023 3 4 0.00 0.00
4:35 am 04:35 Cloudy with Light Snow 30 -1.3 28 -2.2 94 94 NNE 8 13 30.21 1023 3 4 0.00 0.00
4:55 am 04:55 Cloudy with Light Snow 29 -1.4 28 -2.4 93 93 NNE 8 13 30.21 1023 3 4 0.01 0.25
5:15 am 05:15 Cloudy with Light Snow 29 -1.6 28 -2.5 94 94 NNE 12 19 30.21 1023 2 2 0.01 0.25
5:35 am 05:35 Cloudy with Light Snow 29 -1.7 27 -2.6 94 94 NNE 9 15 30.21 1023 2 2 0.01 0.25
5:55 am 05:55 Cloudy with Light Snow 29 -1.8 27 -2.7 94 94 NNE 9 15 30.21 1023 2 3 0.02 0.51
6:15 am 06:15 Cloudy with Snow 29 -1.9 27 -2.7 94 94 NNE 10 17 30.21 1023 1 2 0.02 0.51
6:35 am 06:35 Cloudy with Light Snow 28 -2 27 -2.8 94 94 NNE 10 17 30.21 1023 2 2 0.02 0.51
6:55 am 06:55 Cloudy with Light Snow 28 -2.1 27 -2.9 94 94 NNE 9 15 30.21 1023 1 2 0.03 0.76
7:15 am 07:15 Cloudy with Snow 28 -2.2 27 -2.9 95 95 NNE 10 17 30.21 1023 1 1 0.01 0.25
7:35 am 07:35 Cloudy with Snow 28 -2.3 27 -3 95 95 NNE 12 19 30.21 1023 1 2 0.02 0.51
7:55 am 07:55 Cloudy with Snow 28 -2.3 27 -3 95 95 NNE 10 17 30.21 1023 1 1 0.03 0.76
8:15 am 08:15 Cloudy with Light Snow 28 -2.2 27 -3 94 94 NNE 10 17 30.21 1023 1 2 0.01 0.25
8:35 am 08:35 Cloudy with Light Snow 28 -2.1 27 -3 94 94 NNE 9 15 30.21 1023 1 2 0.01 0.25
8:55 am 08:55 Cloudy with Light Snow 28 -2.1 26 -3.1 93 93 NNE 10 17 30.24 1024 1 2 0.02 0.51
9:15 am 09:15 Cloudy with Light Snow 28 -2 26 -3.1 92 92 NNE 9 15 30.24 1024 1 2 0.00 0.00
9:35 am 09:35 Cloudy with Light Snow 29 -1.8 27 -3 92 92 NNE 9 15 30.24 1024 1 2 0.00 0.00
9:55 am 09:55 Cloudy with Light Snow 29 -1.7 27 -3 91 91 NNE 7 11 30.24 1024 2 2 0.00 0.00
10:15 am 10:15 Cloudy with Light Snow 29 -1.6 27 -2.9 91 91 NNE 8 13 30.27 1025 2 2 0.00 0.00
10:35 am 10:35 Cloudy with Light Snow 29 -1.5 27 -3 90 90 NNE 9 15 30.27 1025 2 3 0.00 0.00
10:55 am 10:55 Cloudy with Light Snow 30 -1.3 27 -3 88 88 NNE 8 13 30.27 1025 3 5 0.00 0.00
11:15 am 11:15 Cloudy with Light Snow 30 -1.2 26 -3.1 87 87 NNE 12 19 30.27 1025 4 6 0.00 0.00
11:35 am 11:35 Cloudy with Light Snow 30 -1 26 -3.1 86 86 NNE 10 17 30.24 1024 5 8 0.00 0.00
11:55 am 11:55 Cloudy with Mist and Fog 31 -0.7 27 -3 85 85 NNE 12 19 30.24 1024 7 11 0.00 0.00
12:15 pm 12:15 Cloudy 31 -0.6 26 -3.1 83 83 NNE 13 20 30.24 1024 10 16 0.00 0.00
12:35 pm 12:35 Cloudy 31 -0.4 26 -3.1 82 82 NNE 15 24 30.24 1024 10 16 0.00 0.00
12:55 pm 12:55 Cloudy 32 -0.2 26 -3.2 80 80 N 14 22 30.21 1023 10 16 0.00 0.00
1:15 pm 13:15 Cloudy 32 -0.1 26 -3.2 80 80 NNE 14 22 30.24 1024 10 16 0.00 0.00
1:35 pm 13:35 Cloudy 32 0.2 27 -2.9 80 80 N 13 20 30.24 1024 10 16 0.00 0.00
1:55 pm 13:55 Cloudy 32 0 26 -3.2 79 79 N 8 13 30.24 1024 10 16 0.00 0.00
2:15 pm 14:15 Cloudy 32 0 26 -3.2 79 79 N 10 17 30.24 1024 10 16 0.00 0.00
2:35 pm 14:35 Cloudy 32 0 26 -3.5 78 78 NNE 13 20 30.24 1024 10 16 0.00 0.00
2:55 pm 14:55 Cloudy 32 -0.1 25 -3.8 76 76 N 15 24 30.24 1024 10 16 0.00 0.00
3:15 pm 15:15 Cloudy 32 0 25 -3.7 76 76 N 13 20 30.24 1024 10 16 0.00 0.00
3:35 pm 15:35 Cloudy 32 0 25 -3.8 76 76 N 12 19 30.27 1025 10 16 0.00 0.00
3:55 pm 15:55 Cloudy 32 0.1 26 -3.6 76 76 N 13 20 30.27 1025 10 16 0.00 0.00
4:15 pm 16:15 Cloudy 32 0.2 26 -3.5 76 76 NNE 10 17 30.27 1025 10 16 0.00 0.00
4:35 pm 16:35 Cloudy 32 0.1 26 -3.4 78 78 N 12 19 30.27 1025 10 16 0.00 0.00
4:55 pm 16:55 Cloudy 32 0.1 26 -3.1 79 79 N 14 22 30.27 1025 10 16 0.00 0.00
5:15 pm 17:15 Cloudy 32 0 27 -3 80 80 N 13 20 30.27 1025 10 16 0.00 0.00
5:35 pm 17:35 Cloudy 32 0 27 -2.9 81 81 N 12 19 30.27 1025 10 16 0.00 0.00
5:55 pm 17:55 Cloudy 32 0 27 -2.8 82 82 N 7 11 30.27 1025 10 16 0.00 0.00
6:15 pm 18:15 Cloudy 32 0 27 -2.8 82 82 N 8 13 30.30 1026 10 16 0.00 0.00
6:35 pm 18:35 Cloudy 32 0 27 -2.8 82 82 N 6 9 30.30 1026 10 16 0.00 0.00
6:55 pm 18:55 Cloudy 32 -0.2 27 -2.7 83 83 N 7 11 30.30 1026 10 16 0.00 0.00
7:15 pm 19:15 Cloudy 32 -0.2 27 -2.7 83 83 N 7 11 30.30 1026 10 16 0.00 0.00
7:35 pm 19:35 Cloudy 31 -0.3 27 -2.7 84 84 N 7 11 30.30 1026 10 16 0.00 0.00
7:55 pm 19:55 Cloudy 31 -0.4 27 -2.8 84 84 N 8 13 30.30 1026 10 16 0.00 0.00
8:15 pm 20:15 Cloudy 31 -0.4 27 -2.8 84 84 N 7 11 30.33 1027 10 16 0.00 0.00
8:35 pm 20:35 Cloudy 31 -0.5 27 -2.8 85 85 N 7 11 30.33 1027 10 16 0.00 0.00
8:55 pm 20:55 Cloudy 31 -0.7 27 -2.9 85 85 N 10 17 30.33 1027 10 16 0.00 0.00
9:15 pm 21:15 Cloudy 30 -0.9 27 -3 86 86 N 8 13 30.33 1027 10 16 0.00 0.00
9:35 pm 21:35 Cloudy 30 -1 26 -3.1 86 86 N 8 13 30.33 1027 10 16 0.00 0.00
9:55 pm 21:55 Cloudy 30 -1.1 26 -3.2 86 86 N 7 11 30.33 1027 10 16 0.00 0.00
10:15 pm 22:15 Cloudy 30 -1.1 26 -3.3 85 85 N 9 15 30.33 1027 10 16 0.00 0.00
10:35 pm 22:35 Cloudy 30 -1.2 26 -3.3 86 86 N 8 13 30.33 1027 10 16 0.00 0.00
10:55 pm 22:55 Cloudy 30 -1.3 26 -3.3 86 86 N 8 13 30.33 1027 10 16 0.00 0.00
11:15 pm 23:15 Cloudy 29 -1.5 26 -3.4 87 87 N 8 13 30.33 1027 10 16 0.00 0.00
11:35 pm 23:35 Cloudy 29 -1.7 26 -3.3 89 89 N 7 11 30.33 1027 10 16 0.00 0.00
11:55 pm 23:55 Cloudy 29 -1.8 26 -3.3 90 90 N 7 11 30.33 1027 10 16 0.00 0.00

Powered by AerisWeather